DLH9110 EDDM-BIKF

Flight info

Callsign DLH9110
Flight time 3h 21m
Altitude 38000
Route INPU2S INPUD Y102 ALIBU MASEK MAPOX LONAM DEVBI RATSU ALDAN ASRUN ASRU4N
Aircraft A346/H-VGDW/C

Departure

Time 2026-05-07 23:33
Airport Munich Airport (EDDM)

Arrival

Time 2026-05-08 02:54
Airport Keflavik International Airport (BIKF)
Time Latitude Longitude Altitude Speed Heading
2026-05-07 23:19 48.34871 11.77263 1481 ft 0 kts 355°
2026-05-07 23:23 48.34872 11.77263 1481 ft 0 kts 347°
2026-05-07 23:23 48.34875 11.77260 1481 ft 0 kts 324°
2026-05-07 23:24 48.34877 11.77253 1481 ft 0 kts 289°
2026-05-07 23:24 48.34874 11.77241 1481 ft 1 kts 232°
2026-05-07 23:24 48.34861 11.77242 1481 ft 4 kts 157°
2026-05-07 23:24 48.34823 11.77272 1480 ft 6 kts 131°
2026-05-07 23:25 48.34810 11.77302 1480 ft 0 kts 122°
2026-05-07 23:25 48.34809 11.77303 1480 ft 0 kts 122°
2026-05-07 23:26 48.34804 11.77317 1480 ft 3 kts 120°
2026-05-07 23:26 48.34784 11.77359 1480 ft 6 kts 135°
2026-05-07 23:26 48.34734 11.77396 1480 ft 9 kts 165°
2026-05-07 23:26 48.34663 11.77435 1480 ft 11 kts 139°
2026-05-07 23:27 48.34651 11.77708 1480 ft 15 kts 84°
2026-05-07 23:27 48.34665 11.77890 1477 ft 18 kts 83°
2026-05-07 23:27 48.34678 11.78069 1477 ft 13 kts 83°
2026-05-07 23:28 48.34690 11.78217 1477 ft 15 kts 83°
2026-05-07 23:28 48.34703 11.78380 1478 ft 16 kts 83°
2026-05-07 23:28 48.34714 11.78516 1480 ft 9 kts 84°
2026-05-07 23:28 48.34721 11.78630 1480 ft 11 kts 84°
2026-05-07 23:29 48.34730 11.78759 1481 ft 13 kts 84°
2026-05-07 23:29 48.34740 11.78907 1482 ft 15 kts 84°
2026-05-07 23:29 48.34753 11.79081 1480 ft 17 kts 84°
2026-05-07 23:29 48.34765 11.79240 1477 ft 16 kts 83°
2026-05-07 23:30 48.34779 11.79416 1476 ft 18 kts 83°
2026-05-07 23:30 48.34796 11.79621 1474 ft 20 kts 83°
2026-05-07 23:30 48.34814 11.79836 1474 ft 21 kts 83°
2026-05-07 23:30 48.34830 11.80044 1474 ft 16 kts 84°
2026-05-07 23:31 48.34842 11.80225 1473 ft 17 kts 90°
2026-05-07 23:31 48.34779 11.80375 1474 ft 18 kts 156°
2026-05-07 23:31 48.34655 11.80414 1474 ft 13 kts 172°
2026-05-07 23:31 48.34562 11.80415 1475 ft 14 kts 186°
2026-05-07 23:32 48.34479 11.80342 1474 ft 15 kts 247°
2026-05-07 23:32 48.34434 11.79884 1477 ft 80 kts 263°
2026-05-07 23:32 48.34346 11.78707 1484 ft 144 kts 264°
2026-05-07 23:32 48.34212 11.76967 1614 ft 181 kts 265°
2026-05-07 23:33 48.34097 11.75186 2353 ft 171 kts 265°
2026-05-07 23:33 48.33961 11.73397 2763 ft 178 kts 263°
2026-05-07 23:33 48.33792 11.71538 3211 ft 182 kts 263°
2026-05-07 23:33 48.33608 11.69588 3532 ft 196 kts 263°
2026-05-07 23:34 48.33593 11.67477 3826 ft 212 kts 286°
2026-05-07 23:34 48.34388 11.65585 4128 ft 229 kts 321°
2026-05-07 23:34 48.35872 11.64513 4513 ft 247 kts 351°
2026-05-07 23:34 48.37609 11.64184 4998 ft 263 kts 352°
2026-05-07 23:35 48.39450 11.63819 5745 ft 270 kts 351°
2026-05-07 23:35 48.41287 11.63422 6583 ft 273 kts 350°
2026-05-07 23:35 48.43164 11.62996 7429 ft 276 kts 349°
2026-05-07 23:35 48.45061 11.62557 8282 ft 279 kts 349°
2026-05-07 23:36 48.46974 11.62111 9124 ft 282 kts 348°
2026-05-07 23:36 48.48906 11.61659 9956 ft 286 kts 348°
2026-05-07 23:36 48.50874 11.61196 10785 ft 289 kts 348°
2026-05-07 23:36 48.52854 11.60728 11596 ft 292 kts 348°
2026-05-07 23:37 48.54855 11.60257 12404 ft 295 kts 348°
2026-05-07 23:37 48.56854 11.59630 13190 ft 297 kts 343°
2026-05-07 23:37 48.58831 11.58715 13828 ft 304 kts 338°
2026-05-07 23:37 48.60885 11.57552 14210 ft 321 kts 337°
2026-05-07 23:38 48.63005 11.56313 14537 ft 339 kts 337°
2026-05-07 23:38 48.65252 11.55000 14851 ft 357 kts 337°
2026-05-07 23:38 48.67645 11.53608 15180 ft 373 kts 337°
2026-05-07 23:38 48.70085 11.52196 15766 ft 381 kts 337°
2026-05-07 23:39 48.72568 11.50763 16511 ft 384 kts 337°
2026-05-07 23:39 48.75041 11.49334 17225 ft 388 kts 337°
2026-05-07 23:39 48.77586 11.47858 17909 ft 392 kts 337°
2026-05-07 23:39 48.80095 11.46401 18551 ft 397 kts 337°
2026-05-07 23:40 48.82693 11.44889 19221 ft 401 kts 337°
2026-05-07 23:40 48.85323 11.43357 19905 ft 404 kts 337°
2026-05-07 23:40 48.87938 11.41831 20565 ft 407 kts 337°
2026-05-07 23:40 48.90568 11.40296 21212 ft 410 kts 337°
2026-05-07 23:41 48.93260 11.38722 21856 ft 414 kts 337°
2026-05-07 23:41 48.95943 11.37153 22483 ft 417 kts 337°
2026-05-07 23:41 48.98644 11.35572 23100 ft 420 kts 337°
2026-05-07 23:41 49.01375 11.33971 23706 ft 423 kts 336°
2026-05-07 23:42 49.04121 11.32359 24311 ft 426 kts 336°
2026-05-07 23:42 49.06875 11.30740 24873 ft 429 kts 336°
2026-05-07 23:42 49.09656 11.29102 25421 ft 432 kts 336°
2026-05-07 23:42 49.12458 11.27450 25947 ft 436 kts 336°
2026-05-07 23:43 49.15313 11.25767 26465 ft 439 kts 336°
2026-05-07 23:43 49.18173 11.24079 26981 ft 442 kts 336°
2026-05-07 23:43 49.21032 11.22387 27476 ft 445 kts 336°
2026-05-07 23:43 49.23920 11.20716 27965 ft 448 kts 337°
2026-05-07 23:44 49.26839 11.19070 28448 ft 451 kts 338°
2026-05-07 23:44 49.29787 11.17414 28940 ft 454 kts 338°
2026-05-07 23:44 49.32762 11.15739 29427 ft 456 kts 338°
2026-05-07 23:44 49.35725 11.14066 30098 ft 453 kts 338°
2026-05-07 23:45 49.38627 11.12421 30806 ft 450 kts 338°
2026-05-07 23:45 49.41568 11.10751 31441 ft 447 kts 337°
2026-05-07 23:45 49.44433 11.09120 31990 ft 445 kts 337°
2026-05-07 23:45 49.47324 11.07473 32488 ft 444 kts 336°
2026-05-07 23:46 49.50186 11.05706 32965 ft 442 kts 334°
2026-05-07 23:46 49.52961 11.03729 33431 ft 441 kts 331°
2026-05-07 23:46 49.55653 11.01541 33878 ft 439 kts 328°
2026-05-07 23:46 49.58261 10.99179 34273 ft 438 kts 326°
2026-05-07 23:47 49.60849 10.96751 34641 ft 438 kts 325°
2026-05-07 23:47 49.63458 10.94281 34981 ft 437 kts 326°
2026-05-07 23:47 49.66033 10.91836 35275 ft 438 kts 326°
2026-05-07 23:47 49.68612 10.89391 35568 ft 438 kts 326°
2026-05-07 23:48 49.71195 10.86945 35838 ft 439 kts 326°
2026-05-07 23:48 49.73816 10.84462 36094 ft 440 kts 326°
2026-05-07 23:48 49.76408 10.82007 36347 ft 440 kts 326°
2026-05-07 23:48 49.78992 10.79557 36558 ft 442 kts 326°
2026-05-07 23:49 49.81625 10.77057 36736 ft 444 kts 326°
2026-05-07 23:49 49.84248 10.74562 36902 ft 446 kts 326°
2026-05-07 23:49 49.86877 10.72057 37064 ft 449 kts 326°
2026-05-07 23:49 49.89533 10.69523 37247 ft 450 kts 326°
2026-05-07 23:50 49.92226 10.66950 37430 ft 452 kts 326°
2026-05-07 23:50 49.94893 10.64400 37617 ft 453 kts 326°
2026-05-07 23:50 49.97572 10.61835 37790 ft 455 kts 326°
2026-05-07 23:50 50.00260 10.59258 37955 ft 457 kts 326°
2026-05-07 23:51 50.02948 10.56677 38065 ft 458 kts 326°
2026-05-07 23:51 50.05651 10.54077 38082 ft 459 kts 326°
2026-05-07 23:51 50.11071 10.48849 38091 ft 459 kts 326°
2026-05-07 23:52 50.16501 10.43597 38094 ft 459 kts 326°
2026-05-07 23:52 50.21889 10.38376 38089 ft 460 kts 326°
2026-05-07 23:53 50.27333 10.33113 38095 ft 460 kts 326°
2026-05-07 23:53 50.32700 10.27780 38095 ft 460 kts 323°
2026-05-07 23:54 50.37740 10.21691 38095 ft 459 kts 317°
2026-05-07 23:54 50.42346 10.14758 38085 ft 458 kts 311°
2026-05-07 23:55 50.46550 10.07359 38088 ft 457 kts 309°
2026-05-07 23:55 50.50732 9.99857 38083 ft 456 kts 309°
2026-05-07 23:56 50.54879 9.92414 38079 ft 456 kts 310°
2026-05-07 23:56 50.59042 9.84933 38083 ft 456 kts 309°
2026-05-07 23:57 50.63202 9.77436 38087 ft 457 kts 309°
2026-05-07 23:57 50.67361 9.69917 38091 ft 458 kts 309°
2026-05-07 23:58 50.71528 9.62361 38093 ft 458 kts 309°
2026-05-07 23:58 50.75653 9.54694 38093 ft 458 kts 308°
2026-05-07 23:59 50.79673 9.46950 38091 ft 458 kts 308°
2026-05-07 23:59 50.83702 9.39178 38098 ft 458 kts 308°
2026-05-08 00:00 50.87705 9.31448 38104 ft 458 kts 307°
2026-05-08 00:00 50.91748 9.23622 38113 ft 458 kts 307°
2026-05-08 00:01 50.95751 9.15853 38115 ft 458 kts 307°
2026-05-08 00:01 50.99752 9.08065 38116 ft 458 kts 307°
2026-05-08 00:02 51.03774 9.00212 38114 ft 458 kts 307°
2026-05-08 00:02 51.07766 8.92392 38114 ft 459 kts 307°
2026-05-08 00:03 51.11777 8.84513 38123 ft 460 kts 308°
2026-05-08 00:03 51.16055 8.76954 38125 ft 461 kts 312°
2026-05-08 00:04 51.20490 8.69684 38122 ft 461 kts 313°
2026-05-08 00:04 51.24955 8.62368 38114 ft 461 kts 313°
2026-05-08 00:05 51.29413 8.55028 38109 ft 461 kts 313°
2026-05-08 00:05 51.33868 8.47661 38113 ft 461 kts 313°
2026-05-08 00:06 51.38300 8.40311 38113 ft 462 kts 313°
2026-05-08 00:06 51.42725 8.32949 38119 ft 462 kts 312°
2026-05-08 00:07 51.47156 8.25555 38124 ft 461 kts 312°
2026-05-08 00:07 51.51599 8.18114 38125 ft 462 kts 312°
2026-05-08 00:08 51.56002 8.10722 38124 ft 461 kts 312°
2026-05-08 00:08 51.60436 8.03258 38128 ft 461 kts 312°
2026-05-08 00:09 51.64830 7.95838 38130 ft 461 kts 312°
2026-05-08 00:09 51.69247 7.88358 38130 ft 462 kts 312°
2026-05-08 00:10 51.73641 7.80891 38135 ft 462 kts 312°
2026-05-08 00:10 51.78052 7.73371 38134 ft 461 kts 312°
2026-05-08 00:11 51.82425 7.65894 38133 ft 461 kts 312°
2026-05-08 00:11 51.86801 7.58391 38133 ft 461 kts 312°
2026-05-08 00:12 51.91192 7.50838 38133 ft 462 kts 312°
2026-05-08 00:12 51.95559 7.43305 38131 ft 462 kts 312°
2026-05-08 00:13 51.99948 7.35711 38129 ft 462 kts 312°
2026-05-08 00:13 52.04349 7.28072 38128 ft 462 kts 311°
2026-05-08 00:14 52.08714 7.20470 38128 ft 462 kts 311°
2026-05-08 00:14 52.13084 7.12839 38125 ft 462 kts 311°
2026-05-08 00:15 52.17429 7.05227 38127 ft 461 kts 311°
2026-05-08 00:15 52.21776 6.97586 38129 ft 462 kts 311°
2026-05-08 00:16 52.26131 6.89908 38128 ft 463 kts 311°
2026-05-08 00:16 52.30468 6.82240 38132 ft 463 kts 311°
2026-05-08 00:17 52.34829 6.74504 38134 ft 463 kts 311°
2026-05-08 00:17 52.39161 6.66797 38133 ft 463 kts 311°
2026-05-08 00:18 52.43502 6.59048 38134 ft 463 kts 311°
2026-05-08 00:18 52.47830 6.51297 38135 ft 463 kts 311°
2026-05-08 00:19 52.52161 6.43516 38135 ft 463 kts 311°
2026-05-08 00:19 52.56468 6.35756 38132 ft 463 kts 311°
2026-05-08 00:20 52.60810 6.27908 38134 ft 464 kts 310°
2026-05-08 00:20 52.65114 6.20105 38133 ft 463 kts 310°
2026-05-08 00:21 52.69442 6.12233 38134 ft 463 kts 310°
2026-05-08 00:21 52.73720 6.04425 38134 ft 463 kts 310°
2026-05-08 00:22 52.78023 5.96547 38132 ft 463 kts 310°
2026-05-08 00:22 52.82305 5.88683 38134 ft 463 kts 310°
2026-05-08 00:23 52.86615 5.80742 38132 ft 464 kts 310°
2026-05-08 00:23 52.90879 5.72863 38129 ft 464 kts 310°
2026-05-08 00:24 52.95163 5.64920 38128 ft 464 kts 310°
2026-05-08 00:24 52.99448 5.56951 38127 ft 464 kts 310°
2026-05-08 00:25 53.03743 5.48935 38127 ft 464 kts 310°
2026-05-08 00:25 53.08002 5.40958 38127 ft 464 kts 310°
2026-05-08 00:26 53.12265 5.32948 38128 ft 464 kts 310°
2026-05-08 00:26 53.16517 5.24936 38132 ft 465 kts 310°
2026-05-08 00:27 53.20769 5.16899 38132 ft 466 kts 310°
2026-05-08 00:27 53.25048 5.08783 38134 ft 465 kts 309°
2026-05-08 00:28 53.29273 5.00745 38138 ft 465 kts 309°
2026-05-08 00:28 53.33533 4.92613 38133 ft 465 kts 309°
2026-05-08 00:29 53.37776 4.84482 38134 ft 466 kts 309°
2026-05-08 00:29 53.42024 4.76317 38137 ft 466 kts 309°
2026-05-08 00:30 53.46269 4.68132 38137 ft 466 kts 309°
2026-05-08 00:30 53.50500 4.59943 38136 ft 466 kts 310°
2026-05-08 00:31 53.54718 4.51755 38139 ft 467 kts 310°
2026-05-08 00:31 53.58950 4.43515 38139 ft 467 kts 310°
2026-05-08 00:32 53.63171 4.35268 38139 ft 467 kts 309°
2026-05-08 00:32 53.67378 4.27018 38140 ft 467 kts 309°
2026-05-08 00:33 53.71603 4.18704 38143 ft 467 kts 309°
2026-05-08 00:33 53.75809 4.10400 38142 ft 467 kts 309°
2026-05-08 00:34 53.80015 4.02065 38144 ft 467 kts 309°
2026-05-08 00:34 53.84388 3.94028 38144 ft 468 kts 314°
2026-05-08 00:35 53.89231 3.86712 38150 ft 470 kts 319°
2026-05-08 00:35 53.94236 3.79640 38147 ft 470 kts 319°
2026-05-08 00:36 53.99243 3.72551 38143 ft 470 kts 319°
2026-05-08 00:36 54.04232 3.65449 38147 ft 470 kts 319°
2026-05-08 00:37 54.09202 3.58342 38145 ft 470 kts 319°
2026-05-08 00:38 54.16676 3.47606 38141 ft 470 kts 319°
2026-05-08 00:38 54.21672 3.40400 38142 ft 470 kts 319°
2026-05-08 00:39 54.26643 3.33207 38144 ft 471 kts 318°
2026-05-08 00:39 54.31613 3.25991 38141 ft 471 kts 318°
2026-05-08 00:40 54.36582 3.18752 38141 ft 471 kts 317°
2026-05-08 00:40 54.41562 3.11474 38137 ft 472 kts 317°
2026-05-08 00:41 54.46523 3.04197 38135 ft 471 kts 317°
2026-05-08 00:41 54.51505 2.96869 38131 ft 472 kts 317°
2026-05-08 00:42 54.56469 2.89540 38129 ft 472 kts 317°
2026-05-08 00:42 54.61442 2.82174 38130 ft 473 kts 318°
2026-05-08 00:43 54.66391 2.74820 38131 ft 473 kts 317°
2026-05-08 00:43 54.71344 2.67436 38129 ft 473 kts 317°
2026-05-08 00:44 54.76307 2.60012 38127 ft 473 kts 317°
2026-05-08 00:44 54.81249 2.52593 38130 ft 473 kts 317°
2026-05-08 00:45 54.86200 2.45134 38127 ft 473 kts 318°
2026-05-08 00:45 54.91137 2.37676 38129 ft 473 kts 317°
2026-05-08 00:46 54.96085 2.30174 38126 ft 473 kts 317°
2026-05-08 00:46 55.01031 2.22648 38128 ft 473 kts 317°
2026-05-08 00:47 55.05971 2.15108 38135 ft 474 kts 317°
2026-05-08 00:47 55.10914 2.07532 38023 ft 474 kts 317°
2026-05-08 00:48 55.15847 1.99949 38092 ft 475 kts 316°
2026-05-08 00:48 55.20760 1.92372 38116 ft 475 kts 316°
2026-05-08 00:49 55.25694 1.84735 38116 ft 475 kts 317°
2026-05-08 00:49 55.30591 1.77130 38108 ft 474 kts 316°
2026-05-08 00:50 55.35517 1.69455 38111 ft 474 kts 316°
2026-05-08 00:50 55.40403 1.61812 38104 ft 474 kts 316°
2026-05-08 00:51 55.45318 1.54101 38100 ft 474 kts 316°
2026-05-08 00:51 55.50216 1.46385 38094 ft 474 kts 316°
2026-05-08 00:52 55.55116 1.38642 38097 ft 475 kts 316°
2026-05-08 00:52 55.60009 1.30883 38086 ft 475 kts 315°
2026-05-08 00:53 55.64906 1.23092 38084 ft 475 kts 315°
2026-05-08 00:53 55.69781 1.15307 38084 ft 475 kts 315°
2026-05-08 00:54 55.74665 1.07480 38077 ft 476 kts 315°
2026-05-08 00:54 55.79553 0.99619 38081 ft 475 kts 315°
2026-05-08 00:55 55.84406 0.91788 38064 ft 475 kts 315°
2026-05-08 00:55 55.89265 0.83917 38058 ft 475 kts 315°
2026-05-08 00:56 55.94138 0.75996 38055 ft 476 kts 315°
2026-05-08 00:56 55.99001 0.68064 38056 ft 476 kts 315°
2026-05-08 00:57 56.03869 0.60097 38056 ft 476 kts 315°
2026-05-08 00:57 56.08742 0.52092 38053 ft 476 kts 315°
2026-05-08 00:58 56.13567 0.44139 38042 ft 476 kts 315°
2026-05-08 00:58 56.18433 0.36089 38044 ft 476 kts 315°
2026-05-08 00:59 56.23253 0.28083 38033 ft 476 kts 314°
2026-05-08 00:59 56.28099 0.20006 38033 ft 476 kts 314°
2026-05-08 01:00 56.32926 0.11928 38026 ft 477 kts 314°
2026-05-08 01:00 56.37770 0.03799 38025 ft 477 kts 314°
2026-05-08 01:01 56.42575 -0.04296 38024 ft 476 kts 314°
2026-05-08 01:01 56.47398 -0.12452 38012 ft 476 kts 314°
2026-05-08 01:02 56.52194 -0.20591 38006 ft 476 kts 314°
2026-05-08 01:02 56.56994 -0.28767 38083 ft 475 kts 314°
2026-05-08 01:03 56.61783 -0.36952 38032 ft 475 kts 314°
2026-05-08 01:03 56.66571 -0.45168 38006 ft 475 kts 314°
2026-05-08 01:04 56.71350 -0.53401 37994 ft 475 kts 314°
2026-05-08 01:04 56.76124 -0.61651 37991 ft 475 kts 314°
2026-05-08 01:05 56.80889 -0.69918 37984 ft 475 kts 313°
2026-05-08 01:05 56.85638 -0.78190 37980 ft 474 kts 313°
2026-05-08 01:06 56.90403 -0.86517 37973 ft 474 kts 313°
2026-05-08 01:06 56.95131 -0.94809 37966 ft 475 kts 313°
2026-05-08 01:07 56.99869 -1.03150 37958 ft 475 kts 312°
2026-05-08 01:07 57.04619 -1.11548 37953 ft 475 kts 313°
2026-05-08 01:08 57.09337 -1.19915 37959 ft 475 kts 313°
2026-05-08 01:08 57.14045 -1.28299 37958 ft 474 kts 313°
2026-05-08 01:09 57.18755 -1.36713 37952 ft 474 kts 312°
2026-05-08 01:09 57.23470 -1.45176 37959 ft 474 kts 313°
2026-05-08 01:10 57.28160 -1.53617 37961 ft 474 kts 312°
2026-05-08 01:10 57.32876 -1.62142 37956 ft 473 kts 312°
2026-05-08 01:11 57.37552 -1.70625 37956 ft 473 kts 311°
2026-05-08 01:11 57.42210 -1.79110 37949 ft 473 kts 311°
2026-05-08 01:12 57.46899 -1.87681 37941 ft 473 kts 311°
2026-05-08 01:12 57.51567 -1.96248 37937 ft 474 kts 311°
2026-05-08 01:13 57.56200 -2.04781 37927 ft 474 kts 311°
2026-05-08 01:13 57.60882 -2.13440 37922 ft 473 kts 311°
2026-05-08 01:14 57.65510 -2.22027 37918 ft 473 kts 311°
2026-05-08 01:14 57.70166 -2.30701 37911 ft 473 kts 311°
2026-05-08 01:15 57.74777 -2.39329 37913 ft 473 kts 311°
2026-05-08 01:15 57.79412 -2.48032 37903 ft 473 kts 311°
2026-05-08 01:16 57.84025 -2.56730 37900 ft 474 kts 311°
2026-05-08 01:16 57.88642 -2.65464 37899 ft 474 kts 310°
2026-05-08 01:17 57.93280 -2.74272 37888 ft 473 kts 310°
2026-05-08 01:17 57.97883 -2.83050 37882 ft 473 kts 310°
2026-05-08 01:18 58.02470 -2.91829 37876 ft 473 kts 310°
2026-05-08 01:18 58.07050 -3.00630 37857 ft 473 kts 310°
2026-05-08 01:19 58.11627 -3.09457 37848 ft 473 kts 310°
2026-05-08 01:19 58.16201 -3.18322 37839 ft 473 kts 310°
2026-05-08 01:20 58.20801 -3.27269 37844 ft 474 kts 310°
2026-05-08 01:20 58.25362 -3.36171 37851 ft 474 kts 310°
2026-05-08 01:21 58.29924 -3.45111 37840 ft 474 kts 310°
2026-05-08 01:21 58.34480 -3.54074 37832 ft 474 kts 310°
2026-05-08 01:22 58.39020 -3.63038 37822 ft 474 kts 310°
2026-05-08 01:22 58.43566 -3.72055 37830 ft 473 kts 309°
2026-05-08 01:23 58.48097 -3.81079 37818 ft 473 kts 309°
2026-05-08 01:23 58.52639 -3.90157 37813 ft 473 kts 309°
2026-05-08 01:24 58.57149 -3.99210 37827 ft 473 kts 309°
2026-05-08 01:24 58.61676 -4.08332 37819 ft 473 kts 309°
2026-05-08 01:25 58.66176 -4.17434 37815 ft 473 kts 309°
2026-05-08 01:25 58.70673 -4.26570 37810 ft 473 kts 309°
2026-05-08 01:26 58.75160 -4.35720 37806 ft 473 kts 310°
2026-05-08 01:26 58.79659 -4.44932 37803 ft 473 kts 309°
2026-05-08 01:27 58.84140 -4.54148 37795 ft 474 kts 310°
2026-05-08 01:27 58.88650 -4.63455 37787 ft 474 kts 309°
2026-05-08 01:28 58.93115 -4.72712 37774 ft 474 kts 309°
2026-05-08 01:28 58.97597 -4.82038 37775 ft 474 kts 309°
2026-05-08 01:29 59.02040 -4.91326 37761 ft 474 kts 309°
2026-05-08 01:29 59.06521 -5.00729 37757 ft 475 kts 309°
2026-05-08 01:30 59.10958 -5.10077 37757 ft 475 kts 309°
2026-05-08 01:30 59.15412 -5.19499 37759 ft 474 kts 309°
2026-05-08 01:31 59.19864 -5.28956 37755 ft 474 kts 309°
2026-05-08 01:31 59.24291 -5.38400 37754 ft 474 kts 309°
2026-05-08 01:32 59.28714 -5.47877 37744 ft 474 kts 309°
2026-05-08 01:32 59.33116 -5.57348 37741 ft 473 kts 309°
2026-05-08 01:33 59.37513 -5.66846 37737 ft 474 kts 308°
2026-05-08 01:33 59.41898 -5.76356 37730 ft 473 kts 308°
2026-05-08 01:34 59.46305 -5.85956 37726 ft 472 kts 308°
2026-05-08 01:34 59.50660 -5.95481 37719 ft 472 kts 308°
2026-05-08 01:35 59.55018 -6.05056 37699 ft 473 kts 308°
2026-05-08 01:35 59.59401 -6.14725 37689 ft 472 kts 308°
2026-05-08 01:36 59.63742 -6.24338 37687 ft 473 kts 308°
2026-05-08 01:36 59.68096 -6.34023 37678 ft 472 kts 308°
2026-05-08 01:37 59.72415 -6.43671 37672 ft 472 kts 308°
2026-05-08 01:37 59.76753 -6.53403 37670 ft 473 kts 308°
2026-05-08 01:38 59.81095 -6.63188 37663 ft 473 kts 308°
2026-05-08 01:38 59.85396 -6.72920 37655 ft 472 kts 308°
2026-05-08 01:39 59.89706 -6.82713 37642 ft 472 kts 308°
2026-05-08 01:39 59.94000 -6.92511 37643 ft 471 kts 308°
2026-05-08 01:40 59.98294 -7.02354 37638 ft 472 kts 308°
2026-05-08 01:40 60.02558 -7.12167 37628 ft 472 kts 308°
2026-05-08 01:41 60.06841 -7.22068 37626 ft 472 kts 308°
2026-05-08 01:41 60.11113 -7.31990 37612 ft 472 kts 308°
2026-05-08 01:42 60.15387 -7.41951 37608 ft 472 kts 308°
2026-05-08 01:42 60.19636 -7.51900 37606 ft 473 kts 308°
2026-05-08 01:43 60.23884 -7.61896 37603 ft 473 kts 308°
2026-05-08 01:43 60.28142 -7.71955 37598 ft 473 kts 307°
2026-05-08 01:44 60.32368 -7.81981 37595 ft 473 kts 307°
2026-05-08 01:44 60.36600 -7.92064 37598 ft 473 kts 307°
2026-05-08 01:45 60.40822 -8.02176 37594 ft 473 kts 307°
2026-05-08 01:45 60.45050 -8.12341 37590 ft 473 kts 307°
2026-05-08 01:46 60.49251 -8.22489 37580 ft 473 kts 308°
2026-05-08 01:46 60.53467 -8.32710 37578 ft 473 kts 308°
2026-05-08 01:47 60.57652 -8.42911 37571 ft 473 kts 308°
2026-05-08 01:47 60.61818 -8.53109 37569 ft 473 kts 308°
2026-05-08 01:48 60.68076 -8.68617 37569 ft 474 kts 305°
2026-05-08 01:48 60.71785 -8.79575 37565 ft 472 kts 299°
2026-05-08 01:49 60.74906 -8.91336 37570 ft 470 kts 294°
2026-05-08 01:49 60.77726 -9.03286 37568 ft 470 kts 294°
2026-05-08 01:50 60.80528 -9.15270 37578 ft 470 kts 294°
2026-05-08 01:50 60.83351 -9.27380 37580 ft 470 kts 294°
2026-05-08 01:51 60.86151 -9.39433 37586 ft 470 kts 294°
2026-05-08 01:51 60.88946 -9.51535 37587 ft 471 kts 294°
2026-05-08 01:52 60.91712 -9.63574 37602 ft 471 kts 294°
2026-05-08 01:52 60.94481 -9.75701 37609 ft 471 kts 294°
2026-05-08 01:53 60.97245 -9.87876 37620 ft 472 kts 294°
2026-05-08 01:53 61.00050 -10.00046 37621 ft 473 kts 296°
2026-05-08 01:54 61.03199 -10.11845 37635 ft 474 kts 298°
2026-05-08 01:54 61.06429 -10.23660 37642 ft 473 kts 298°
2026-05-08 01:55 61.09623 -10.35416 37653 ft 472 kts 298°
2026-05-08 01:55 61.12802 -10.47199 37658 ft 472 kts 298°
2026-05-08 01:56 61.15979 -10.59046 37675 ft 472 kts 298°
2026-05-08 01:56 61.19152 -10.70937 37678 ft 472 kts 298°
2026-05-08 01:57 61.22309 -10.82832 37695 ft 472 kts 298°
2026-05-08 01:57 61.25462 -10.94780 37710 ft 473 kts 298°
2026-05-08 01:58 61.28581 -11.06661 37717 ft 473 kts 298°
2026-05-08 01:58 61.31714 -11.18666 37731 ft 472 kts 298°
2026-05-08 01:59 61.34836 -11.30687 37749 ft 472 kts 298°
2026-05-08 01:59 61.37937 -11.42691 37761 ft 472 kts 298°
2026-05-08 02:00 61.41016 -11.54672 37771 ft 472 kts 298°
2026-05-08 02:00 61.44096 -11.66725 37781 ft 472 kts 297°
2026-05-08 02:01 61.47137 -11.78696 37796 ft 471 kts 297°
2026-05-08 02:01 61.50205 -11.90832 37805 ft 472 kts 297°
2026-05-08 02:02 61.53251 -12.02952 37822 ft 472 kts 298°
2026-05-08 02:02 61.56269 -12.15026 37832 ft 472 kts 298°
2026-05-08 02:03 61.59298 -12.27204 37837 ft 472 kts 298°
2026-05-08 02:03 61.62313 -12.39392 37851 ft 472 kts 298°
2026-05-08 02:04 61.65317 -12.51607 37854 ft 472 kts 297°
2026-05-08 02:04 61.68303 -12.63822 37867 ft 472 kts 298°
2026-05-08 02:05 61.71280 -12.76069 37870 ft 473 kts 297°
2026-05-08 02:05 61.74247 -12.88340 37884 ft 473 kts 297°
2026-05-08 02:06 61.77211 -13.00670 37897 ft 473 kts 297°
2026-05-08 02:06 61.80166 -13.13026 37906 ft 472 kts 297°
2026-05-08 02:07 61.83080 -13.25279 37907 ft 472 kts 297°
2026-05-08 02:07 61.86012 -13.37678 37918 ft 472 kts 297°
2026-05-08 02:08 61.88912 -13.50023 37928 ft 472 kts 297°
2026-05-08 02:08 61.91820 -13.62471 37943 ft 472 kts 297°
2026-05-08 02:09 61.94702 -13.74877 37949 ft 472 kts 296°
2026-05-08 02:09 61.97597 -13.87403 37957 ft 472 kts 296°
2026-05-08 02:10 62.00459 -13.99863 37973 ft 472 kts 296°
2026-05-08 02:10 62.03324 -14.12412 37988 ft 471 kts 296°
2026-05-08 02:11 62.06163 -14.24923 38003 ft 471 kts 296°
2026-05-08 02:11 62.08971 -14.37368 38017 ft 471 kts 296°
2026-05-08 02:12 62.11810 -14.50021 38033 ft 471 kts 297°
2026-05-08 02:12 62.14613 -14.62586 38035 ft 471 kts 297°
2026-05-08 02:13 62.17406 -14.75179 38044 ft 471 kts 296°
2026-05-08 02:13 62.20181 -14.87764 38052 ft 471 kts 296°
2026-05-08 02:14 62.22949 -15.00401 38065 ft 470 kts 296°
2026-05-08 02:14 62.25686 -15.12981 38067 ft 470 kts 296°
2026-05-08 02:15 62.28433 -15.25670 38071 ft 470 kts 296°
2026-05-08 02:15 62.31170 -15.38381 38071 ft 470 kts 296°
2026-05-08 02:16 62.33879 -15.51052 38078 ft 470 kts 296°
2026-05-08 02:16 62.36599 -15.63848 38083 ft 470 kts 296°
2026-05-08 02:17 62.39298 -15.76625 38090 ft 470 kts 295°
2026-05-08 02:17 62.41970 -15.89348 38095 ft 470 kts 295°
2026-05-08 02:18 62.44644 -16.02159 38101 ft 470 kts 295°
2026-05-08 02:18 62.47316 -16.15039 38107 ft 469 kts 295°
2026-05-08 02:19 62.49961 -16.27873 38114 ft 469 kts 296°
2026-05-08 02:19 62.52571 -16.40619 38115 ft 469 kts 296°
2026-05-08 02:20 62.55193 -16.53499 38120 ft 469 kts 296°
2026-05-08 02:20 62.57806 -16.66418 38122 ft 469 kts 295°
2026-05-08 02:21 62.60407 -16.79352 38125 ft 470 kts 295°
2026-05-08 02:21 62.62993 -16.92301 38130 ft 469 kts 295°
2026-05-08 02:22 62.65555 -17.05208 38130 ft 468 kts 295°
2026-05-08 02:22 62.68108 -17.18162 38132 ft 468 kts 295°
2026-05-08 02:23 62.70655 -17.31160 38134 ft 468 kts 295°
2026-05-08 02:23 62.73181 -17.44130 38138 ft 468 kts 295°
2026-05-08 02:24 62.75697 -17.57136 38139 ft 468 kts 295°
2026-05-08 02:24 62.78200 -17.70158 38143 ft 467 kts 294°
2026-05-08 02:25 62.80686 -17.83180 38142 ft 467 kts 294°
2026-05-08 02:25 62.83159 -17.96217 38148 ft 466 kts 295°
2026-05-08 02:26 62.85619 -18.09278 38146 ft 465 kts 295°
2026-05-08 02:26 62.88064 -18.22336 38145 ft 465 kts 295°
2026-05-08 02:27 62.90505 -18.35459 38147 ft 466 kts 295°
2026-05-08 02:27 62.92914 -18.48502 38137 ft 466 kts 295°
2026-05-08 02:28 62.94125 -18.55100 37777 ft 467 kts 295°
2026-05-08 02:28 62.95327 -18.61669 37413 ft 463 kts 295°
2026-05-08 02:28 62.96591 -18.68039 37051 ft 458 kts 297°
2026-05-08 02:28 62.98002 -18.74282 36684 ft 454 kts 300°
2026-05-08 02:29 62.99543 -18.80304 36316 ft 449 kts 303°
2026-05-08 02:29 63.01185 -18.86019 35952 ft 445 kts 306°
2026-05-08 02:29 63.02932 -18.91534 35587 ft 444 kts 308°
2026-05-08 02:29 63.04722 -18.97012 35218 ft 442 kts 309°
2026-05-08 02:30 63.06513 -19.02462 34847 ft 442 kts 309°
2026-05-08 02:30 63.08311 -19.07948 34474 ft 441 kts 309°
2026-05-08 02:30 63.10107 -19.13444 34096 ft 441 kts 309°
2026-05-08 02:30 63.11896 -19.18939 33721 ft 441 kts 309°
2026-05-08 02:31 63.13672 -19.24411 33397 ft 440 kts 309°
2026-05-08 02:31 63.15425 -19.29830 33082 ft 440 kts 309°
2026-05-08 02:31 63.17188 -19.35290 32777 ft 439 kts 309°
2026-05-08 02:31 63.18949 -19.40759 32492 ft 437 kts 309°
2026-05-08 02:32 63.20712 -19.46248 32200 ft 437 kts 309°
2026-05-08 02:32 63.22465 -19.51723 31903 ft 436 kts 309°
2026-05-08 02:32 63.24188 -19.57114 31607 ft 435 kts 309°
2026-05-08 02:32 63.25930 -19.62578 31302 ft 434 kts 309°
2026-05-08 02:33 63.27656 -19.68006 30989 ft 433 kts 308°
2026-05-08 02:33 63.29395 -19.73485 30599 ft 434 kts 308°
2026-05-08 02:33 63.31111 -19.78906 30212 ft 434 kts 309°
2026-05-08 02:33 63.32842 -19.84387 29819 ft 434 kts 308°
2026-05-08 02:34 63.34578 -19.89897 29421 ft 435 kts 308°
2026-05-08 02:34 63.36290 -19.95343 28983 ft 436 kts 308°
2026-05-08 02:34 63.38020 -20.00864 28538 ft 435 kts 308°
2026-05-08 02:34 63.39724 -20.06313 28096 ft 432 kts 308°
2026-05-08 02:35 63.41427 -20.11779 27645 ft 428 kts 308°
2026-05-08 02:35 63.43109 -20.17187 27198 ft 424 kts 308°
2026-05-08 02:35 63.44772 -20.22547 26748 ft 422 kts 308°
2026-05-08 02:35 63.46427 -20.27891 26301 ft 419 kts 308°
2026-05-08 02:36 63.48080 -20.33243 25846 ft 416 kts 308°
2026-05-08 02:36 63.49707 -20.38524 25400 ft 412 kts 308°
2026-05-08 02:36 63.51307 -20.43733 24937 ft 406 kts 308°
2026-05-08 02:36 63.52860 -20.48808 24339 ft 388 kts 308°
2026-05-08 02:37 63.54329 -20.53687 23868 ft 370 kts 306°
2026-05-08 02:37 63.55506 -20.58604 23398 ft 357 kts 299°
2026-05-08 02:37 63.56390 -20.63695 22933 ft 346 kts 293°
2026-05-08 02:37 63.57050 -20.68768 22464 ft 335 kts 290°
2026-05-08 02:38 63.57656 -20.73728 21980 ft 323 kts 290°
2026-05-08 02:38 63.58241 -20.78538 21614 ft 320 kts 290°
2026-05-08 02:38 63.58818 -20.83277 21156 ft 320 kts 290°
2026-05-08 02:38 63.59403 -20.88075 20694 ft 319 kts 290°
2026-05-08 02:39 63.59988 -20.92888 20224 ft 319 kts 290°
2026-05-08 02:39 63.60560 -20.97606 19765 ft 318 kts 290°
2026-05-08 02:39 63.61136 -21.02387 19296 ft 317 kts 290°
2026-05-08 02:39 63.61707 -21.07143 18819 ft 316 kts 290°
2026-05-08 02:40 63.62275 -21.11881 18346 ft 316 kts 290°
2026-05-08 02:40 63.62844 -21.16635 17883 ft 315 kts 290°
2026-05-08 02:40 63.63411 -21.21383 17413 ft 314 kts 290°
2026-05-08 02:40 63.63967 -21.26059 16942 ft 313 kts 290°
2026-05-08 02:41 63.64527 -21.30792 16476 ft 313 kts 289°
2026-05-08 02:41 63.65080 -21.35474 15910 ft 310 kts 289°
2026-05-08 02:41 63.65619 -21.40073 15338 ft 300 kts 289°
2026-05-08 02:41 63.66136 -21.44512 14806 ft 290 kts 289°
2026-05-08 02:42 63.66637 -21.48817 14273 ft 284 kts 289°
2026-05-08 02:42 63.67139 -21.53115 13755 ft 282 kts 289°
2026-05-08 02:42 63.67629 -21.57312 13240 ft 280 kts 289°
2026-05-08 02:42 63.68116 -21.61513 12718 ft 278 kts 289°
2026-05-08 02:43 63.68605 -21.65731 12184 ft 276 kts 288°
2026-05-08 02:43 63.69083 -21.69877 11660 ft 274 kts 288°
2026-05-08 02:43 63.69556 -21.73987 11125 ft 272 kts 288°
2026-05-08 02:43 63.70025 -21.78091 10595 ft 271 kts 288°
2026-05-08 02:44 63.70490 -21.82167 10074 ft 269 kts 288°
2026-05-08 02:44 63.70946 -21.86171 9547 ft 267 kts 288°
2026-05-08 02:44 63.71401 -21.90194 9024 ft 265 kts 288°
2026-05-08 02:44 63.71855 -21.94204 8491 ft 263 kts 289°
2026-05-08 02:45 63.72301 -21.98163 7961 ft 261 kts 289°
2026-05-08 02:45 63.72743 -22.02093 7430 ft 256 kts 289°
2026-05-08 02:45 63.73173 -22.05932 6900 ft 251 kts 289°
2026-05-08 02:45 63.73590 -22.09654 6380 ft 247 kts 289°
2026-05-08 02:46 63.74006 -22.13367 5848 ft 243 kts 289°
2026-05-08 02:46 63.74416 -22.17033 5318 ft 240 kts 289°
2026-05-08 02:46 63.74817 -22.20648 4790 ft 237 kts 289°
2026-05-08 02:46 63.75209 -22.24184 4273 ft 235 kts 289°
2026-05-08 02:47 63.75601 -22.27732 3746 ft 233 kts 289°
2026-05-08 02:47 63.75992 -22.31277 3214 ft 231 kts 289°
2026-05-08 02:47 63.76377 -22.34766 2700 ft 229 kts 289°
2026-05-08 02:47 63.76775 -22.38150 2501 ft 218 kts 292°
2026-05-08 02:48 63.77254 -22.41258 2447 ft 206 kts 296°
2026-05-08 02:48 63.77728 -22.44201 2469 ft 193 kts 296°
2026-05-08 02:48 63.78189 -22.47034 2465 ft 193 kts 296°
2026-05-08 02:48 63.78654 -22.49875 2462 ft 193 kts 296°
2026-05-08 02:49 63.79117 -22.52717 2458 ft 193 kts 296°
2026-05-08 02:49 63.79577 -22.55556 2344 ft 193 kts 296°
2026-05-08 02:49 63.80108 -22.58336 2195 ft 188 kts 311°
2026-05-08 02:49 63.81140 -22.59941 2062 ft 181 kts 343°
2026-05-08 02:50 63.82356 -22.60440 1970 ft 180 kts 356°
2026-05-08 02:50 63.83608 -22.60554 1974 ft 179 kts
2026-05-08 02:50 63.84800 -22.60550 1951 ft 164 kts
2026-05-08 02:50 63.85920 -22.60546 1945 ft 160 kts
2026-05-08 02:51 63.87038 -22.60546 1961 ft 160 kts
2026-05-08 02:51 63.88153 -22.60548 1844 ft 161 kts
2026-05-08 02:51 63.89255 -22.60549 1624 ft 161 kts
2026-05-08 02:51 63.90378 -22.60550 1405 ft 161 kts
2026-05-08 02:52 63.91494 -22.60550 1184 ft 162 kts
2026-05-08 02:52 63.92608 -22.60545 927 ft 158 kts
2026-05-08 02:52 63.93675 -22.60503 682 ft 148 kts
2026-05-08 02:52 63.94670 -22.60522 469 ft 137 kts 359°
2026-05-08 02:53 63.95600 -22.60577 298 ft 134 kts
2026-05-08 02:53 63.96546 -22.60566 154 ft 136 kts
2026-05-08 02:53 63.97423 -22.60552 163 ft 110 kts
2026-05-08 02:53 63.98064 -22.60547 174 ft 79 kts
2026-05-08 02:54 63.98486 -22.60553 169 ft 48 kts
2026-05-08 02:54 63.98745 -22.60571 165 ft 25 kts 345°
2026-05-08 02:54 63.98898 -22.60824 160 ft 24 kts 318°
2026-05-08 02:54 63.99023 -22.60946 158 ft 21 kts 359°
2026-05-08 02:55 63.99148 -22.60987 158 ft 16 kts 316°
2026-05-08 02:55 63.99171 -22.61603 154 ft 23 kts 270°
2026-05-08 02:55 63.99173 -22.61953 154 ft 18 kts 269°
2026-05-08 02:56 63.99171 -22.62220 154 ft 8 kts 278°
2026-05-08 02:56 63.99218 -22.62304 154 ft 9 kts 347°
2026-05-08 02:56 63.99266 -22.62314 154 ft 0 kts 358°